Weather History for Peoria, IL

Change the Weather History Date:

Saturday, January 19, 2013

  Actual Average Record
Temperature  
Mean Temperature 41 °F 25 °F  
Max Temperature 52 °F 33 °F 63 °F (1952)
Min Temperature 30 °F 17 °F -21 °F (1994)
Degree Days  
Heating Degree Days 24 40  
Month to date heating degree days 685 760  
Since 1 July heating degree days 2831 3038  
Cooling Degree Days 0 0  
Month to date cooling degree days 0 0  
Year to date cooling degree days 0 0  
Moisture  
Dew Point 30 °F    
Average Humidity 64    
Maximum Humidity 78    
Minimum Humidity 50    
Precipitation  
Precipitation 0.00 in 0.06 in 2.26 in (1907)
Month to date precipitation 1.56 1.16  
Year to date precipitation 1.56 1.16  
Snow  
Snow 0.00 in 0.30 in 5.40 in (2000)
Month to date snowfall 0.2 4.3  
Since 1 July snowfall 3.4 12.5  
Snow Depth 0.00 in    
Sea Level Pressure  
Sea Level Pressure 29.95 in    
Wind  
Wind Speed 14 mph (WSW)    
Max Wind Speed 24 mph    
Max Gust Speed 38 mph    
Visibility 10 miles    
Events      
T = Trace of Precipitation, MM = Missing Value Source: NWS Daily Summary

Daily Weather History Graph

Daily Weather History Graph

Search for Another Location

Airport:

Trip Planner

Search our weather history database for the weather conditions in past years. The results will help you decide how hot, cold, wet, or windy it might be!

Date:

Astronomy

Jan. 19, 2013 Rise Set
Actual Time 7:18 AM CST 5:01 PM CST
Civil Twilight 6:48 AM CST 5:30 PM CST
Nautical Twilight 6:15 AM CST 6:04 PM CST
Astronomical Twilight 5:42 AM CST 6:37 PM CST
Moon 11:27 AM CST (1/19) 12:52 AM CST (1/19)
Length of Visible Light 10h 42m
Length of Day
9h 42m
First Quarter, 57% of the Moon is Illuminated
Jan 19
First Quarter
Jan 26
Full
Feb 3
Last Quarter
Feb 10
New
Feb 17
First Quarter

Hourly Weather History & Observations

Time (CST) Temp. Windchill Dew Point Humidity Pressure Visibility Wind Dir Wind Speed Gust Speed Precip Events Conditions
12:54 AM 37.0 °F 29.3 °F 26.1 °F 65% 30.01 in 10.0 mi SSW 11.5 mph - N/A   Clear
1:54 AM 36.0 °F 28.5 °F 26.1 °F 67% 30.02 in 10.0 mi SSW 10.4 mph - N/A   Clear
2:54 AM 37.0 °F 29.3 °F 26.1 °F 65% 30.01 in 10.0 mi SSW 11.5 mph - N/A   Clear
3:54 AM 33.1 °F 26.1 °F 26.1 °F 75% 30.00 in 10.0 mi South 8.1 mph - N/A   Clear
4:54 AM 32.0 °F 23.6 °F 27.0 °F 82% 29.99 in 10.0 mi South 10.4 mph - N/A   Clear
5:54 AM 33.8 °F 24.8 °F 26.6 °F 75% 29.96 in 10.0 mi SSW 12.7 mph - N/A   Clear
6:54 AM 34.0 °F 25.5 °F 27.0 °F 75% 29.96 in 10.0 mi SSW 11.5 mph - N/A   Clear
7:54 AM 35.1 °F 26.4 °F 28.0 °F 76% 29.95 in 10.0 mi South 12.7 mph - N/A   Clear
8:54 AM 39.9 °F 32.5 °F 30.0 °F 68% 29.95 in 10.0 mi SSW 12.7 mph - N/A   Clear
9:54 AM 42.1 °F 35.7 °F 30.0 °F 62% 29.95 in 10.0 mi SW 11.5 mph - N/A   Clear
10:54 AM 46.9 °F - 32.0 °F 56% 29.91 in 10.0 mi SW 13.8 mph - N/A   Clear
11:54 AM 51.1 °F - 33.1 °F 50% 29.87 in 10.0 mi WSW 18.4 mph - N/A   Clear
12:54 PM 51.1 °F - 34.0 °F 52% 29.85 in 10.0 mi WSW 15.0 mph 21.9 mph N/A   Clear
1:54 PM 51.1 °F - 35.1 °F 54% 29.83 in 10.0 mi WSW 17.3 mph 23.0 mph N/A   Clear
2:54 PM 52.0 °F - 35.1 °F 53% 29.83 in 10.0 mi WSW 16.1 mph - N/A   Clear
3:54 PM 52.0 °F - 35.1 °F 53% 29.85 in 10.0 mi West 13.8 mph - N/A   Clear
4:54 PM 48.9 °F - 35.1 °F 59% 29.88 in 10.0 mi West 10.4 mph - N/A   Clear
5:54 PM 46.9 °F - 34.0 °F 61% 29.91 in 10.0 mi West 10.4 mph - N/A   Clear
6:54 PM 46.0 °F 40.2 °F 33.1 °F 61% 29.94 in 10.0 mi West 12.7 mph - N/A   Clear
7:54 PM 44.1 °F 37.7 °F 30.9 °F 60% 29.96 in 10.0 mi WNW 12.7 mph - N/A   Clear
8:54 PM 43.0 °F 35.7 °F 32.0 °F 65% 29.98 in 10.0 mi West 15.0 mph - N/A   Clear
9:54 PM 42.1 °F 33.3 °F 30.0 °F 62% 30.01 in 10.0 mi WNW 19.6 mph 27.6 mph N/A   Clear
10:54 PM 39.0 °F 30.3 °F 28.0 °F 65% 30.04 in 10.0 mi WNW 16.1 mph 27.6 mph N/A   Clear
11:54 PM 30.0 °F 17.2 °F 19.0 °F 64% 30.10 in 10.0 mi WNW 20.7 mph 38.0 mph N/A   Clear